GFSNGP_925_thetae_057.txt.gz
Theta_e
309 309 310 313 314 317 318 323 327 329 331 332 333 333 332 333 332 334 333 337 348 350 353 352 351 351 351 350 349 348 349 349 350 349 349 349 350 350 350 349 347 346 347 348
310 308 312 313 313 315 316 319 321 323 326 325 332 339 339 342 343 344 345 343 338 348 350 353 351 350 350 350 349 349 350 351 351 351 351 351 351 351 350 350 350 351 351 351
308 314 315 317 316 316 319 322 321 327 328 331 335 341 337 336 336 339 342 344 346 341 348 351 350 349 349 349 349 349 350 351 352 352 352 351 351 352 352 352 352 351 351 351
310 310 319 317 321 320 323 322 322 324 327 331 341 338 333 330 330 333 335 338 342 346 343 349 347 347 348 349 350 350 350 350 351 352 352 352 352 352 352 352 353 354 354 353
310 317 321 324 322 323 325 323 318 320 321 323 328 338 337 325 323 328 332 337 343 345 346 336 348 348 349 350 351 351 351 351 351 352 353 353 353 353 352 352 352 352 353 354
310 318 325 322 317 316 320 328 316 317 319 321 334 344 333 321 321 329 335 340 346 351 347 338 348 348 350 351 352 353 352 352 352 352 352 353 354 354 354 354 354 354 353 353
311 314 317 314 312 315 328 324 316 317 317 319 323 322 320 319 323 332 336 339 351 348 347 350 349 349 351 352 353 352 353 353 353 353 353 354 354 355 356 356 356 357 356 356
312 315 318 310 312 321 317 315 315 317 317 318 318 319 319 318 322 327 329 333 343 352 349 349 348 350 352 354 352 353 354 354 354 354 354 355 355 356 356 357 358 359 359 359
317 317 311 311 312 313 314 315 314 316 317 316 315 316 318 319 319 323 323 322 329 343 346 352 351 350 352 353 353 353 355 356 356 356 356 356 358 358 358 359 358 359 360 360
310 312 312 313 314 314 315 315 313 315 316 316 316 315 316 317 320 321 323 322 320 321 328 339 348 351 354 355 352 353 354 356 357 358 358 358 358 358 359 359 360 359 360 361
311 313 311 311 314 316 317 315 315 315 315 315 317 318 317 317 318 320 321 323 321 320 320 322 328 341 347 349 357 355 354 354 354 355 356 358 358 358 359 359 360 361 361 362
313 314 315 312 311 312 315 317 316 316 316 316 317 318 317 318 317 318 319 320 323 320 319 320 322 327 333 340 349 350 353 356 354 359 355 356 356 350 356 357 358 359 360 360
312 311 310 310 309 309 311 311 310 310 311 313 314 315 316 317 316 316 317 319 323 323 320 321 322 323 326 330 337 346 349 348 345 349 356 356 354 354 355 348 354 355 356 357
309 310 311 309 309 308 308 308 308 308 308 309 309 311 313 316 317 317 317 320 322 321 322 321 321 322 322 324 328 334 345 346 343 335 350 355 355 354 354 357 356 353 352 355
308 308 308 308 308 307 307 307 308 308 307 308 308 310 311 315 317 317 319 320 320 320 320 319 320 320 320 321 324 328 337 344 348 349 350 353 355 356 356 357 357 356 344 348
307 306 306 307 306 306 306 306 306 307 306 306 307 313 313 313 316 318 318 318 318 318 318 317 317 318 319 320 322 324 329 332 339 346 348 351 354 354 352 352 353 352 350 347
308 307 306 306 305 305 305 305 305 305 305 305 305 307 313 316 314 313 313 314 316 315 314 315 316 317 318 319 320 323 325 329 332 343 345 345 348 351 350 348 347 346 348 341
307 307 306 305 305 304 304 304 304 304 304 304 304 305 306 307 310 309 309 309 310 311 310 310 312 314 316 318 319 320 323 326 332 336 343 344 344 347 348 346 345 343 335 333
308 307 306 306 305 304 304 304 304 304 303 304 303 304 304 305 306 307 306 305 306 307 307 307 309 313 316 317 317 319 321 324 330 333 338 342 343 344 345 344 343 340 333 331
309 308 307 306 306 305 304 303 303 303 303 303 302 302 303 304 304 304 305 304 304 305 305 307 308 310 313 315 315 319 320 324 330 334 336 339 341 342 340 337 338 336 333 331
306 309 309 308 308 307 307 305 303 303 302 304 303 301 301 302 303 302 303 304 303 304 305 306 307 308 310 310 312 313 313 314 315 317 326 332 331 331 328 325 322 320 319 318
305 307 308 306 308 306 305 306 305 302 302 302 303 304 303 302 302 301 301 302 303 304 304 304 304 305 304 305 305 304 304 305 304 305 305 305 306 306 306 307 307 307 308 310
305 306 308 307 306 303 302 301 303 305 304 303 301 302 303 303 303 303 303 301 302 302 303 303 303 302 302 302 301 301 301 301 300 300 299 299 298 298 297 297 298 299 299 299
303 304 305 304 302 301 302 300 300 300 301 301 301 301 301 302 302 302 303 301 301 300 301 302 302 301 301 301 301 300 300 300 299 299 298 298 297 297 296 296 295 295 294 294
302 301 302 302 301 301 300 300 300 300 301 301 301 300 300 300 301 302 302 301 301 300 299 300 299 300 299 299 299 299 299 299 299 298 297 297 296 295 295 294 294 294 294 294
302 301 301 300 299 299 299 300 300 300 300 300 300 300 300 300 300 301 301 301 300 299 299 299 299 298 297 297 296 296 296 296 296 296 296 296 295 295 294 293 293 293 293 293
300 299 301 300 299 299 300 299 300 300 300 300 300 300 300 300 300 301 301 301 301 300 299 299 298 297 297 297 297 297 296 295 295 294 294 294 295 294 294 293 293 292 292 292

GFSNGP_925_thetae_060.txt.gz
Theta_e
311 310 310 312 314 317 321 326 330 330 331 333 331 330 331 333 336 336 334 339 345 350 352 355 354 355 354 352 351 350 352 351 352 354 353 352 353 354 354 355 355 356 355 354
311 310 309 309 311 314 316 322 324 326 329 330 333 333 338 338 342 342 341 342 339 347 350 353 353 355 356 355 353 352 354 354 354 355 355 355 355 355 356 355 356 356 356 355
311 309 311 313 314 317 318 320 322 326 327 329 331 334 341 340 339 340 340 342 345 346 345 348 350 352 355 357 355 354 356 355 355 357 357 357 356 357 357 357 356 357 356 355
311 311 311 310 313 317 318 321 322 324 325 329 333 340 339 337 338 340 341 342 343 344 345 344 346 348 352 354 356 356 357 357 357 358 358 358 358 359 358 357 357 357 357 356
311 311 310 315 322 323 324 321 324 326 327 328 330 341 344 336 336 338 342 344 345 345 345 346 346 346 349 352 355 356 358 358 358 359 359 358 359 359 358 358 358 358 357 357
312 313 316 321 317 316 320 331 324 323 326 328 331 338 339 330 330 337 341 343 346 348 350 351 350 346 348 352 353 357 357 358 358 359 359 359 359 359 359 358 358 358 358 358
313 313 314 316 315 315 328 327 322 323 325 328 335 331 326 322 326 328 331 339 346 353 355 353 352 346 352 353 354 356 355 355 357 358 359 359 359 359 359 358 357 358 357 358
314 314 316 315 316 318 317 318 317 319 321 322 324 322 320 321 322 325 326 329 342 355 354 350 346 345 356 357 355 355 355 355 358 358 357 358 360 360 360 360 360 361 360 360
314 315 315 313 313 312 313 316 317 316 319 319 320 319 318 319 321 321 323 323 323 343 354 355 351 351 354 357 356 357 357 358 358 358 358 358 359 361 361 361 360 360 361 361
312 314 312 313 313 315 316 317 317 316 317 317 320 319 319 318 318 319 319 323 322 324 332 347 355 357 355 356 356 357 359 359 359 360 360 359 360 361 360 360 360 360 361 361
309 310 311 312 312 314 316 317 317 317 317 318 319 320 318 318 318 319 319 320 324 323 325 330 340 345 353 358 357 358 359 360 360 361 360 361 361 360 361 360 360 361 360 361
312 310 311 311 310 311 312 313 312 312 313 314 314 317 318 319 319 319 320 322 325 324 325 326 327 331 335 346 359 357 358 358 358 359 361 361 361 359 357 356 359 360 361 361
309 310 308 309 309 309 310 311 310 310 310 312 312 313 315 318 319 320 322 323 324 324 323 325 326 326 327 334 348 354 356 358 360 362 359 360 361 361 359 354 357 358 359 360
307 308 308 307 308 308 308 309 309 308 309 310 311 313 313 316 319 320 322 321 321 321 322 322 324 324 325 328 336 347 345 345 346 349 351 348 348 353 357 359 360 358 353 356
307 306 306 306 306 306 307 308 308 308 308 309 310 314 314 316 319 321 320 320 320 320 320 321 322 322 323 325 328 336 344 345 348 350 352 351 345 344 350 352 356 358 359 346
307 306 305 304 305 306 305 307 308 307 307 307 308 311 315 315 315 315 317 318 317 316 316 317 318 319 320 324 326 328 334 334 342 349 346 348 355 356 356 357 358 358 358 359
309 308 307 306 304 305 305 305 306 306 306 305 306 308 309 310 309 310 311 311 313 312 312 313 314 317 321 322 323 325 327 332 334 345 348 350 352 354 354 354 355 356 358 355
309 308 307 307 306 304 305 305 304 304 304 304 305 305 306 307 308 307 308 308 309 309 309 310 312 314 320 322 320 322 325 327 332 338 344 344 343 342 346 350 352 355 355 342
309 309 307 307 306 306 304 304 304 304 303 303 303 304 305 305 306 307 306 306 307 307 308 309 310 313 314 317 316 322 324 325 328 332 335 340 343 341 342 344 345 347 347 343
308 308 308 307 306 306 306 304 303 304 305 306 304 303 303 303 303 305 306 306 305 306 306 307 308 310 311 312 314 320 321 323 324 330 335 335 338 339 342 341 341 344 343 343
306 307 308 306 306 304 304 304 304 304 304 304 305 305 305 304 303 304 305 305 305 304 304 305 305 306 306 306 307 307 311 311 310 310 313 317 323 324 325 325 322 322 327 330
306 306 306 306 304 303 303 302 304 304 304 304 304 305 305 304 304 303 302 303 303 304 303 302 303 303 302 302 301 301 301 302 302 301 301 300 301 301 301 302 303 303 305 307
305 305 306 305 303 303 303 302 302 303 303 303 303 303 304 304 304 303 303 301 301 302 302 302 301 301 301 300 300 299 299 299 298 298 298 298 298 297 296 296 296 297 297 298
305 304 304 304 303 303 303 302 303 302 302 302 303 303 302 303 303 303 302 301 301 301 301 300 300 299 299 298 298 298 298 298 297 297 296 296 296 295 295 295 294 294 294 294
305 304 304 303 303 303 302 302 302 302 302 302 302 302 302 302 302 302 302 301 300 301 301 300 299 299 299 298 297 297 296 296 296 296 296 295 295 294 294 294 293 293 294 293
305 303 303 302 302 302 302 302 302 301 302 302 302 302 302 302 302 302 301 301 300 300 300 299 300 300 299 299 299 298 296 295 295 295 295 295 294 294 293 293 293 292 292 292
303 301 303 302 302 301 301 301 301 301 301 302 302 302 302 301 302 302 302 301 301 301 300 300 299 299 299 298 298 298 297 297 295 295 295 295 295 294 293 293 293 292 292 291

GFSNGP_925_thetae_063.txt.gz
Theta_e
314 314 315 315 317 321 323 328 331 329 331 332 332 331 333 335 336 337 339 341 343 344 351 361 358 359 357 353 353 351 352 352 354 357 356 356 354 356 356 358 358 359 359 358
317 315 314 314 314 315 320 324 326 328 331 331 331 333 332 334 337 342 342 339 340 345 349 352 355 360 359 357 355 353 354 353 353 356 357 357 356 356 358 359 359 360 360 360
316 314 314 314 313 313 315 318 321 325 328 329 331 333 338 337 341 341 341 342 344 345 346 349 352 355 358 359 356 355 357 355 355 356 358 358 357 358 359 360 360 361 361 361
319 315 317 314 313 315 316 316 319 321 323 327 328 330 333 341 342 342 342 343 344 344 344 345 348 351 355 357 359 358 357 360 357 359 360 360 360 360 361 361 361 362 362 361
316 314 313 313 321 324 325 325 318 321 322 325 326 327 331 340 339 340 343 346 346 345 345 345 345 346 351 355 360 360 362 359 361 360 362 362 362 362 362 363 363 362 363 363
313 314 315 315 320 318 322 327 328 323 324 327 328 331 331 334 334 337 338 340 344 347 349 349 349 348 347 352 356 362 363 362 362 361 363 364 364 364 364 364 364 361 362 363
315 315 314 313 317 316 326 326 323 324 326 329 331 333 330 330 332 333 335 336 334 343 355 356 354 351 351 351 356 359 361 362 363 363 364 365 365 365 365 365 361 363 363 363
317 316 315 318 317 317 321 319 320 321 323 323 324 325 324 327 327 327 331 333 332 337 348 362 357 355 358 355 356 358 360 361 363 364 363 364 365 366 366 366 365 366 364 365
315 314 316 316 316 316 316 317 316 320 318 320 321 322 321 322 323 323 325 328 328 329 335 340 354 356 360 356 360 359 361 362 362 364 365 363 365 366 365 365 362 363 363 361
314 313 313 310 313 312 314 317 315 318 318 319 320 321 319 319 320 321 322 325 326 327 329 330 332 342 351 361 359 362 362 364 363 364 364 363 364 364 363 362 363 361 361 361
312 310 308 309 310 310 312 315 316 316 316 317 318 319 319 320 321 322 323 324 323 324 326 327 327 330 334 343 358 360 362 362 363 362 362 363 362 362 361 360 359 359 355 354
311 308 309 310 308 308 310 312 312 313 312 313 313 315 317 320 321 322 323 323 324 323 324 325 325 326 328 332 346 359 361 362 361 361 362 362 362 359 359 359 359 358 358 357
308 308 307 307 307 306 308 311 311 311 311 312 313 314 314 318 320 322 322 322 322 323 323 324 324 324 324 328 333 349 361 362 362 361 361 363 362 362 361 356 357 359 359 360
307 306 306 305 307 305 308 308 309 309 309 310 312 316 316 317 320 322 321 321 320 320 320 321 322 322 323 326 329 340 349 352 360 361 362 362 363 363 362 361 360 359 358 358
307 306 305 305 306 305 305 307 308 308 308 309 311 315 316 317 318 318 318 317 317 316 316 318 319 320 323 325 326 334 338 343 348 351 356 361 359 356 357 361 360 357 347 347
308 307 306 305 305 306 305 305 306 307 307 308 308 310 311 310 311 312 311 313 313 314 313 314 316 317 321 325 324 326 330 337 345 350 352 349 345 346 347 351 352 352 352 349
309 308 308 307 306 305 306 306 305 304 306 307 307 307 307 309 308 308 309 310 311 311 311 312 313 316 319 322 322 325 326 330 335 345 348 343 342 343 350 349 350 354 354 357
310 309 309 308 307 306 306 305 306 306 305 305 305 305 305 307 308 308 308 308 308 309 309 310 312 314 316 315 317 323 326 327 330 335 341 349 348 348 342 343 348 352 356 351
309 309 308 307 307 306 306 305 306 306 306 305 304 304 305 305 307 307 306 306 306 307 307 308 310 311 311 311 316 322 324 326 328 332 335 336 344 343 343 345 346 346 351 352
308 308 308 307 306 306 306 305 305 306 305 306 307 306 305 304 304 305 306 305 305 305 305 306 307 307 308 308 310 313 315 315 317 321 322 328 329 334 342 337 338 338 342 345
308 308 308 307 306 305 305 305 305 305 306 305 306 306 306 305 303 303 304 305 305 304 304 303 303 304 304 303 303 304 306 306 306 305 310 310 311 313 317 317 318 319 321 322
308 307 307 306 305 305 304 305 304 304 305 305 305 306 306 305 304 302 301 302 302 302 302 302 302 302 301 301 300 299 299 299 300 300 300 300 300 300 299 300 301 302 303 306
307 306 306 306 305 305 304 304 305 304 305 304 304 305 305 305 304 303 303 301 301 301 302 301 301 301 301 299 299 299 298 298 297 297 297 297 297 296 296 296 296 297 297 298
307 306 305 305 305 305 305 305 305 304 304 304 304 305 304 303 303 302 302 302 302 301 301 301 301 301 301 301 300 299 298 297 297 296 296 295 295 295 295 294 294 294 293 294
307 306 306 304 305 304 304 304 304 304 305 304 304 304 304 303 303 302 302 301 301 302 302 300 301 302 302 302 300 300 299 297 297 296 296 295 295 294 294 293 293 293 293 293
307 305 305 304 304 303 303 303 303 303 303 304 304 304 304 304 303 303 302 302 302 302 301 301 301 301 301 300 300 300 299 299 299 297 297 296 295 295 294 293 293 293 292 292
305 303 305 304 304 303 302 302 303 303 302 303 303 304 304 304 303 303 303 302 302 302 302 301 300 300 300 300 299 299 299 299 298 299 299 298 297 296 295 295 294 293 292 291

GFSNGP_925_thetae_069.txt.gz
Theta_e
311 312 312 313 314 316 316 315 316 317 318 319 331 330 332 337 342 345 347 345 345 345 344 348 348 351 350 353 352 356 359 359 358 357 356 356 352 350 344 353 349 356 355 353
316 315 312 312 313 315 316 316 316 316 317 319 320 328 330 332 337 342 344 347 348 347 349 351 349 342 347 350 353 353 358 360 359 358 357 357 357 355 353 347 358 353 353 355
316 315 315 315 313 313 314 315 315 315 315 316 318 319 334 341 338 341 341 340 340 343 347 347 345 346 344 346 354 354 354 359 359 359 359 358 358 356 356 352 351 359 358 356
314 316 316 313 313 314 314 314 324 326 321 327 328 328 334 336 338 337 336 337 338 337 338 345 344 341 346 351 352 354 354 356 358 359 359 359 358 358 356 356 354 353 355 357
315 315 312 312 311 320 320 321 322 323 323 324 326 328 330 328 332 332 330 332 334 336 336 340 346 348 344 339 351 349 351 355 357 358 359 359 358 358 358 357 358 356 358 359
315 317 317 317 317 317 317 319 319 318 320 321 323 330 328 325 328 327 327 328 331 333 333 335 340 339 347 338 338 341 349 357 357 357 358 358 359 358 359 357 357 359 358 359
315 318 315 316 316 316 317 319 318 316 317 318 321 322 322 322 323 323 325 327 329 328 329 330 331 332 338 343 350 351 354 359 358 357 357 358 358 359 358 358 357 357 359 359
316 316 316 315 317 318 316 313 313 315 315 316 318 319 320 322 321 321 323 326 325 325 327 327 328 328 331 334 335 340 350 360 360 360 357 359 359 359 359 359 359 359 359 360
315 318 313 312 312 311 310 310 311 311 313 316 317 318 321 321 320 321 323 324 324 323 324 325 325 324 326 327 330 335 342 354 360 362 360 359 360 360 360 360 360 360 360 361
308 311 308 309 307 308 307 308 308 310 312 314 317 319 318 319 319 320 322 323 324 323 323 323 322 322 324 325 328 332 338 350 361 362 364 360 363 362 362 362 362 362 362 362
309 308 306 307 305 306 306 307 308 309 311 313 313 316 317 317 317 319 321 323 322 323 322 321 321 321 321 324 326 329 333 346 363 363 365 364 364 365 364 364 364 363 363 363
308 307 307 306 305 306 305 306 307 309 310 310 312 312 314 315 316 318 320 321 321 319 318 317 317 318 320 323 324 326 330 343 357 364 366 365 364 361 366 366 365 365 364 364
307 306 306 305 305 306 305 304 305 307 308 309 309 310 312 314 315 317 319 318 318 317 315 314 314 316 318 321 322 324 327 332 342 360 365 366 366 364 358 357 365 366 365 365
307 307 307 305 305 306 305 303 303 304 306 308 309 311 313 315 314 313 313 313 313 313 313 313 314 314 316 319 318 323 326 330 335 348 355 361 364 365 363 355 353 356 363 365
309 308 306 306 306 306 305 304 304 304 305 306 307 308 311 311 310 310 310 310 312 311 310 310 312 313 313 315 316 321 324 327 331 341 350 356 360 363 363 358 355 353 350 355
309 308 307 307 308 307 306 307 305 305 304 305 306 307 308 308 308 308 308 309 308 307 307 308 310 310 313 312 315 322 324 328 332 340 347 348 351 357 362 361 358 347 349 354
310 310 308 309 308 308 307 307 307 305 305 304 305 305 305 307 306 305 305 306 306 304 304 305 308 307 309 310 313 317 319 323 324 327 333 335 341 345 349 352 352 350 349 349
311 311 310 309 308 308 307 307 306 306 305 305 304 304 304 305 305 306 305 304 304 304 303 304 306 305 306 308 309 312 314 316 319 319 322 326 327 333 338 343 346 349 348 344
311 311 310 309 307 307 308 308 307 307 305 305 304 304 303 303 303 304 303 304 304 303 303 303 304 303 302 306 306 307 309 310 310 311 313 316 319 319 319 321 328 340 342 341
311 310 310 309 307 306 308 308 307 307 306 306 305 305 303 303 302 302 303 303 303 304 303 302 301 302 301 302 302 302 303 303 304 304 304 305 306 309 312 310 311 312 315 319
312 310 310 307 308 307 306 306 306 307 306 306 307 305 304 302 302 302 302 303 302 303 302 303 302 301 301 300 299 298 298 299 299 299 300 300 300 299 301 303 305 307 307 305
310 309 309 307 307 308 306 306 306 307 306 307 307 305 306 304 304 302 302 302 303 303 302 303 303 303 301 299 298 298 297 297 297 296 296 297 297 297 296 296 297 298 298 303
308 308 309 308 308 307 307 306 306 307 306 307 306 306 304 303 303 303 302 302 302 303 303 303 303 303 301 300 299 298 298 297 296 296 295 295 295 295 295 295 295 295 295 297
309 307 307 307 306 305 308 307 306 307 306 306 306 305 303 303 303 303 303 303 303 303 302 302 302 302 302 301 300 299 298 298 297 296 295 295 294 294 294 294 294 294 293 294
308 307 308 308 308 305 305 305 305 306 306 306 305 304 303 303 303 303 303 303 303 302 302 301 301 302 301 301 301 300 299 298 297 297 296 296 295 294 294 294 294 293 293 293
307 307 307 307 307 304 305 304 304 305 305 306 305 305 305 304 304 304 303 303 303 302 302 301 301 301 301 300 299 300 300 299 298 297 297 297 296 295 295 294 293 293 293 292
305 306 306 306 305 304 303 304 304 303 306 305 305 305 305 305 304 304 303 303 303 303 302 302 301 300 301 300 299 300 299 300 299 299 298 297 297 296 296 295 295 295 294 294

GFSNGP_925_thetae_072.txt.gz
Theta_e
310 313 313 314 314 312 311 312 314 313 312 312 315 317 331 336 341 344 347 348 347 345 344 343 343 340 344 348 349 352 351 352 350 352 352 348 343 345 345 345 345 345 348 352
314 314 313 312 312 313 313 312 313 313 314 325 325 332 337 337 341 343 344 342 341 344 348 347 345 345 345 348 349 353 353 353 353 351 353 353 350 345 345 343 344 346 343 347
313 314 312 311 310 312 312 313 321 328 324 323 325 328 327 330 335 338 340 340 339 339 340 345 347 344 344 344 345 346 352 354 355 354 353 354 354 351 347 346 343 347 350 348
310 312 315 310 309 312 315 321 321 321 321 321 321 322 323 324 329 329 333 335 337 336 338 343 342 342 346 343 345 346 346 353 357 357 356 355 354 355 353 351 348 346 350 351
311 311 311 312 310 310 318 320 317 318 318 318 319 324 322 321 322 322 325 329 332 333 332 337 333 335 340 346 348 346 346 346 349 358 358 357 356 355 355 354 353 349 348 353
311 310 314 311 316 315 315 319 316 316 316 316 317 322 321 318 320 321 322 328 328 328 328 329 329 330 335 341 343 344 342 344 346 348 357 358 357 357 356 355 355 354 352 350
310 313 314 313 313 314 316 314 313 313 313 314 315 316 315 317 319 320 323 325 323 325 325 327 325 326 329 332 335 337 342 343 348 350 355 357 357 357 357 357 356 356 355 354
310 310 314 310 313 315 312 309 309 310 310 312 312 314 316 317 318 319 321 323 323 323 324 324 322 323 325 326 327 331 338 341 343 346 355 356 357 357 357 356 357 356 356 357
311 317 309 309 310 308 306 305 306 307 307 309 310 313 314 315 316 318 320 321 322 323 322 321 321 320 322 323 325 328 332 336 342 348 352 356 357 356 357 356 357 357 355 355
305 307 307 307 306 305 306 305 305 305 307 307 309 311 311 313 314 315 318 319 321 321 320 319 317 317 318 320 322 324 327 331 339 343 351 358 356 356 356 357 356 356 357 356
306 305 306 306 306 305 306 304 305 306 306 309 310 311 311 311 312 314 315 318 320 319 317 316 315 315 317 319 320 323 325 329 335 340 348 359 357 358 357 357 357 357 357 357
303 302 307 306 305 305 306 305 305 304 306 307 309 310 310 310 311 314 314 317 319 318 316 314 313 314 315 317 319 320 323 326 329 333 340 358 360 358 359 358 358 358 358 358
304 303 304 304 305 305 306 306 305 304 305 306 308 308 309 310 310 313 316 315 314 314 313 312 312 312 313 314 315 316 319 324 327 330 337 353 362 357 356 358 361 361 360 360
304 305 305 305 305 305 305 305 305 304 304 305 307 308 310 312 312 314 313 312 313 311 310 309 310 311 311 313 313 316 320 324 326 328 332 343 355 362 358 355 358 361 363 363
306 306 305 305 305 306 306 306 306 305 304 304 306 308 309 310 310 310 309 309 309 307 307 308 308 309 309 311 312 315 318 322 324 327 334 343 350 357 362 360 356 356 359 363
307 307 308 307 305 305 307 307 307 306 304 304 304 305 306 306 306 306 306 306 305 304 304 305 306 307 307 308 311 314 317 320 321 323 328 336 343 351 358 360 357 355 352 355
308 308 307 306 306 306 306 306 306 306 305 304 304 304 304 304 306 305 305 304 304 303 303 304 305 305 305 308 309 311 314 315 316 316 319 324 329 338 349 357 355 350 350 351
308 307 306 306 306 305 305 306 306 305 305 304 303 303 303 304 304 304 303 304 304 303 303 303 305 303 304 306 306 308 310 311 311 310 312 314 316 321 329 342 350 348 344 344
310 309 309 309 308 305 305 306 306 306 304 304 304 303 303 302 302 303 303 303 303 304 303 303 303 302 301 304 304 304 305 308 306 307 307 310 306 310 313 317 326 338 335 335
311 310 310 309 308 306 305 307 307 306 306 305 305 303 302 302 302 302 303 302 302 303 303 303 301 301 300 301 301 300 301 303 302 302 302 302 304 300 302 309 308 310 313 313
310 310 309 308 306 307 307 306 306 306 306 306 306 305 303 302 302 302 302 303 303 301 302 302 301 301 300 299 298 298 298 298 298 298 298 299 299 300 300 299 299 303 303 303
309 309 308 308 307 306 306 305 306 307 306 306 307 305 303 302 302 302 302 302 302 302 301 302 301 301 300 299 298 297 296 296 296 296 296 296 296 296 297 296 296 297 296 297
308 307 307 307 307 306 306 306 306 306 306 307 306 305 303 302 302 302 302 302 303 303 302 301 301 301 299 298 297 297 297 296 295 295 295 295 295 294 294 294 294 295 295 295
307 307 306 307 306 305 306 306 306 306 306 306 305 305 303 303 303 303 303 303 303 302 302 302 301 300 300 298 297 297 296 296 296 295 295 294 294 294 294 294 294 294 294 294
307 307 306 306 306 303 303 306 306 306 306 305 304 304 303 303 303 303 303 302 302 301 301 302 301 300 299 299 298 297 297 297 296 295 295 294 294 294 294 294 294 293 293 293
306 305 306 306 303 303 305 305 304 305 305 305 305 305 305 304 304 304 303 302 302 301 301 301 300 299 300 300 299 298 298 297 296 295 295 295 294 294 293 293 293 292 292 292
305 305 305 305 304 303 304 304 304 304 305 305 304 305 304 304 304 303 303 302 302 301 300 300 300 299 299 299 300 299 298 298 297 297 296 296 295 295 295 295 295 294 294 293

GFSNGP_925_thetae_075.txt.gz
Theta_e
310 312 312 313 312 312 310 311 312 312 311 325 325 329 329 333 338 341 341 340 342 343 343 344 344 343 341 345 346 347 346 348 348 347 346 345 344 343 340 338 339 341 344 348
311 312 311 312 310 311 311 311 312 315 319 321 321 325 325 327 332 335 338 340 338 339 343 347 346 345 342 343 346 348 348 347 348 348 348 347 345 345 343 341 338 341 341 345
311 311 310 307 309 310 311 317 316 321 322 320 320 324 323 323 323 325 328 334 335 335 336 340 340 339 343 344 345 348 350 349 349 349 350 350 348 346 344 343 343 342 341 343
309 309 312 306 308 311 321 320 319 319 319 318 318 321 320 320 321 321 323 329 330 330 329 332 331 332 337 344 343 344 346 349 351 351 350 350 352 350 348 345 345 344 343 343
309 309 308 310 312 313 316 319 316 317 316 315 314 316 321 316 318 320 321 325 326 326 326 326 327 326 333 340 346 345 346 346 350 353 353 351 351 352 352 349 347 346 346 344
307 308 313 310 313 313 313 318 315 314 314 314 313 320 321 314 314 318 321 323 323 323 324 324 324 322 328 330 334 334 339 343 345 349 355 355 354 353 353 353 352 350 349 347
307 308 311 311 310 311 314 312 311 311 310 309 312 311 311 312 315 317 319 322 323 322 323 323 321 320 323 326 326 327 330 334 338 340 343 348 352 356 355 354 354 353 352 351
311 309 311 309 311 314 309 307 307 307 306 307 307 308 309 311 314 315 316 320 321 322 322 322 320 317 319 320 321 323 325 330 333 337 340 344 351 354 356 355 355 354 354 353
308 308 310 309 309 306 305 304 304 304 304 304 305 306 307 308 310 313 315 316 318 320 321 320 318 316 316 317 319 320 323 326 329 333 339 344 348 355 356 356 356 355 354 354
305 303 305 305 304 304 304 304 305 304 303 305 306 307 307 308 310 310 312 313 316 319 320 318 318 315 314 316 317 320 321 323 326 330 334 341 346 355 355 356 356 356 355 355
301 302 303 305 305 305 304 305 305 305 304 304 304 305 306 308 309 309 310 311 314 317 318 317 316 315 313 314 315 317 318 319 324 327 330 333 339 353 355 355 356 355 355 355
303 300 302 302 303 303 305 306 306 305 306 305 304 305 306 308 308 308 309 310 312 316 317 316 315 314 313 313 314 314 314 317 321 323 327 331 337 352 357 356 355 356 356 355
302 300 302 302 302 303 305 305 305 306 305 304 304 304 306 307 308 307 308 309 313 315 314 313 312 312 312 311 312 312 313 316 320 322 326 329 333 341 358 356 356 356 355 355
301 302 304 303 303 303 305 305 306 306 305 304 303 304 306 308 308 309 309 310 313 313 311 309 309 309 310 309 310 311 312 315 319 322 324 327 332 338 347 355 353 353 356 356
303 303 302 303 303 303 305 306 307 305 304 303 303 303 304 308 309 309 310 309 309 307 306 306 306 306 307 306 307 308 310 314 318 318 321 323 329 337 345 354 357 357 356 357
306 304 304 304 305 305 303 304 305 306 305 303 303 303 303 305 305 305 305 305 305 304 303 303 304 305 305 304 305 308 311 313 315 316 318 321 324 329 336 345 354 355 355 357
308 308 306 306 305 305 304 303 305 306 304 303 303 303 302 303 303 304 304 303 303 303 303 303 303 304 303 304 305 305 308 310 312 313 314 314 315 320 324 329 343 354 354 355
307 307 306 306 306 305 304 304 305 306 305 304 303 303 302 302 303 303 303 303 303 303 303 302 304 304 302 303 304 304 305 307 308 307 308 309 310 312 315 320 328 343 348 348
309 309 309 308 307 306 305 304 305 305 305 304 304 304 302 302 302 303 302 302 302 303 302 302 302 301 300 302 303 302 302 304 304 304 304 305 305 308 307 310 312 319 328 328
310 310 310 309 309 307 305 304 306 306 306 305 304 304 302 301 301 302 302 302 302 302 301 301 300 301 300 299 299 298 299 300 300 300 300 301 301 302 304 303 305 305 308 309
308 309 309 308 306 306 306 306 306 306 306 306 306 303 301 301 301 301 301 302 302 301 301 302 301 300 300 298 297 296 297 297 297 297 297 297 298 298 299 300 299 299 301 301
308 308 307 307 307 307 307 306 305 305 305 306 306 303 301 301 302 302 302 302 302 302 300 301 300 300 299 297 297 297 296 295 295 295 295 295 295 295 295 296 297 298 298 297
308 307 306 306 306 306 306 305 305 306 305 306 305 305 303 302 302 302 302 303 302 302 300 300 300 299 298 297 296 296 296 296 295 295 294 294 294 294 294 294 294 295 295 295
306 306 305 306 306 303 303 304 305 305 306 306 305 304 303 302 302 302 302 302 302 302 301 299 300 298 297 296 296 295 295 295 294 294 294 294 294 294 294 293 294 293 294 294
305 306 306 305 304 302 302 304 305 305 305 304 304 304 304 303 304 303 302 301 301 301 301 299 298 298 297 297 296 295 295 295 294 293 293 293 293 293 292 293 292 293 293 293
304 304 304 302 303 303 303 304 304 305 304 304 304 304 304 304 303 303 302 300 300 301 301 300 299 298 298 297 297 296 295 295 295 295 293 293 293 293 292 292 292 292 292 292
304 304 304 303 303 303 304 304 304 304 304 304 304 304 304 303 302 301 301 301 300 300 299 299 299 300 298 298 297 297 296 296 295 295 295 294 293 294 294 293 293 292 292 292